User: anonymous   Login
Location: Darlington Observatory
(36.4817°N, 105.8156°W)
Time: 19:52:39
(UTC-06:00)
Language:

MOS 1 - Orbit

View from above orbital plane
View from above orbital plane
View from above satellite
View from above satellite

Ground track
Ground track

The orbit data is extracted from the following two-line orbital elements,

1 17527U 87018A   15243.53773633 -.00000231  00000-0 -11994-3 0  9993
2 17527 099.2554 235.6811 0007609 301.6006 165.6306 14.02407076457556
Epoch (UTC): 31 August 2015 12:54:20
Eccentricity: 0.0007609
inclination: 99.2554°
perigee height: 880 km
apogee height: 891 km
right ascension of ascending node: 235.6811°
argument of perigee: 301.6006°
revolutions per day: 14.02407076
mean anomaly at epoch: 165.6306°
orbit number at epoch: 45755

The dashed part of the orbit path shows where the satellite is in the earth's shadow,  

DLR